Weather History for Stanley, ID

Change the Weather History Date:

Sunday, July 7, 2013

  Actual Average Record
Temperature  
Mean Temperature 60 °F 56 °F  
Max Temperature 83 °F 76 °F 88 °F (2002)
Min Temperature 37 °F 36 °F 18 °F (1969)
Degree Days  
Heating Degree Days 5 9  
Month to date heating degree days 20 72  
Since 1 June heating degree days 389 526  
Since 1 July heating degree days 20 72  
Cooling Degree Days 0 0  
Month to date cooling degree days 13 0  
Year to date cooling degree days 16 0  
Since 1 June cooling degree days 16 0  
Growing Degree Days 10 (Base 50)    
Moisture  
Dew Point 33 °F    
Average Humidity 51    
Maximum Humidity 92    
Minimum Humidity 10    
Precipitation  
Precipitation 0.00 in 0.03 in 0.47 in (1969)
Month to date precipitation 0.27 0.20  
Year to date precipitation 6.20 10.12  
Sea Level Pressure  
Sea Level Pressure 29.78 in    
Wind  
Wind Speed 4 mph (SSW)    
Max Wind Speed 17 mph    
Max Gust Speed 26 mph    
T = Trace of Precipitation, MM = Missing Value Source: NWS Daily Summary

Daily Weather History Graph

Daily Weather History Graph

Search for Another Location

Airport:

Trip Planner

Search our weather history database for the weather conditions in past years. The results will help you decide how hot, cold, wet, or windy it might be!

Date:

Astronomy

Jul. 07, 2013 Rise Set
Actual Time 6:04 AM MDT 9:24 PM MDT
Civil Twilight 5:28 AM MDT 10:00 PM MDT
Nautical Twilight 4:41 AM MDT 10:47 PM MDT
Astronomical Twilight 3:42 AM MDT 11:45 PM MDT
Moon 5:46 AM MDT (7/7) 8:48 PM MDT (7/7)
Length of Visible Light 16h 32m
Length of Day
15h 20m
Waning Crescent, 0% of the Moon is Illuminated
Jul 7
Waning Crescent
Jul 8
New
Jul 15
First Quarter
Jul 22
Full
Jul 29
Last Quarter

Hourly Weather History & Observations

Time (MDT) Temp. Windchill Dew Point Humidity Pressure Visibility Wind Dir Wind Speed Gust Speed Precip Events Conditions
12:51 AM 48.0 °F - 39.0 °F 71% 29.77 in - SE 5.8 mph - N/A   Unknown
1:51 AM 46.9 °F - 39.0 °F 74% 29.79 in - Calm Calm - N/A   Unknown
2:51 AM 44.1 °F 42.5 °F 37.9 °F 79% 29.79 in - South 3.5 mph - N/A   Unknown
3:51 AM 43.0 °F - 37.9 °F 82% 29.80 in - Calm Calm - N/A   Unknown
4:51 AM 41.0 °F - 37.0 °F 86% 29.82 in - Calm Calm - N/A   Unknown
5:51 AM 37.9 °F 35.5 °F 36.0 °F 93% 29.85 in - South 3.5 mph - N/A   Unknown
6:51 AM 37.9 °F - 36.0 °F 93% 29.85 in - Calm Calm - N/A   Unknown
7:51 AM 46.9 °F - 37.9 °F 71% 29.83 in - ENE 3.5 mph - N/A   Unknown
8:51 AM 53.1 °F - 41.0 °F 64% 29.82 in - Calm Calm - N/A   Unknown
9:51 AM 61.0 °F - 41.0 °F 48% 29.82 in - Calm Calm - N/A   Unknown
10:51 AM 68.0 °F - 41.0 °F 37% 29.78 in - NNW 4.6 mph - N/A   Unknown
11:51 AM 75.9 °F - 46.0 °F 35% 29.75 in - NNW 8.1 mph - N/A   Unknown
12:51 PM 80.1 °F - 28.0 °F 15% 29.74 in - WSW 8.1 mph 17.3 mph N/A   Unknown
1:51 PM 80.1 °F - 27.0 °F 14% 29.74 in - SSW 10.4 mph 17.3 mph N/A   Unknown
2:51 PM 81.0 °F - 30.0 °F 16% 29.74 in - South 9.2 mph - N/A   Unknown
3:51 PM 82.9 °F - 27.0 °F 13% 29.73 in - West 9.2 mph - N/A   Unknown
4:51 PM 81.0 °F - 21.0 °F 11% 29.75 in - Variable 6.9 mph 17.3 mph N/A   Unknown
5:51 PM 81.0 °F - 19.9 °F 10% 29.75 in - West 5.8 mph 17.3 mph N/A   Unknown
6:51 PM 80.1 °F - 25.0 °F 13% 29.76 in - Calm Calm - N/A   Unknown
7:51 PM 79.0 °F - 26.1 °F 14% 29.74 in - Variable 3.5 mph - N/A   Unknown
8:51 PM 72.0 °F - 32.0 °F 23% 29.75 in - SW 3.5 mph - N/A   Unknown
9:51 PM 59.0 °F - 32.0 °F 36% 29.80 in - SSE 3.5 mph - N/A   Unknown
10:51 PM 54.0 °F - 33.1 °F 45% 29.80 in - SSE 4.6 mph - N/A   Unknown
11:51 PM 51.1 °F - 33.1 °F 50% 29.80 in - South 3.5 mph - N/A   Unknown